| time (UTC) | temp C | wind direction | speed KPH | gust KPH | rain 1hr cm | rain 24hr cm | rain mn cm | humidity % | barometer mb |
| 20260506202604 | 7 | 266 | 0.0 | 0.0 | 0.10 | 3.56 | 3.56 | 97 | 991.6 |
| 20260506202042 | 7 | 231 | 0.0 | 0.0 | 0.10 | 3.53 | 3.53 | 97 | 991.6 |
| 20260506201603 | 7 | 101 | 0.0 | 0.0 | 0.15 | 3.53 | 3.53 | 98 | 991.6 |
| 20260506201042 | 7 | 84 | 0.0 | 0.0 | 0.20 | 3.53 | 3.53 | 98 | 991.5 |
| 20260506200552 | 7 | 84 | 0.0 | 0.0 | 0.20 | 3.53 | 3.53 | 98 | 991.6 |
| 20260506200055 | 7 | 84 | 0.0 | 0.0 | 0.20 | 3.58 | 3.53 | 98 | 991.6 |
| 20260506195542 | 7 | 83 | 0.0 | 0.0 | 0.25 | 3.56 | 3.51 | 98 | 991.7 |
| 20260506195050 | 7 | 101 | 0.0 | 0.0 | 0.33 | 3.56 | 3.51 | 98 | 991.7 |
| 20260506194559 | 7 | 101 | 0.0 | 0.0 | 0.36 | 3.56 | 3.51 | 98 | 991.7 |
| 20260506194045 | 7 | 248 | 0.0 | 0.0 | 0.43 | 3.56 | 3.51 | 98 | 991.8 |
| 20260506193557 | 7 | 11 | 0.0 | 0.0 | 0.46 | 3.56 | 3.51 | 98 | 991.8 |
| 20260506193043 | 7 | 47 | 0.0 | 0.0 | 0.51 | 3.51 | 3.45 | 98 | 991.8 |
| 20260506192551 | 7 | 58 | 0.0 | 0.0 | 0.56 | 3.51 | 3.45 | 98 | 991.8 |
| 20260506192054 | 7 | 81 | 0.0 | 0.0 | 0.61 | 3.48 | 3.43 | 98 | 991.8 |
| 20260506191541 | 7 | 54 | 0.0 | 0.0 | 0.61 | 3.43 | 3.38 | 98 | 991.7 |
| 20260506191049 | 7 | 52 | 0.0 | 0.0 | 0.61 | 3.38 | 3.33 | 98 | 991.6 |
| 20260506190602 | 7 | 120 | 0.0 | 0.0 | 0.66 | 3.38 | 3.33 | 97 | 991.6 |
| 20260506190047 | 7 | 1 | 0.0 | 0.0 | 0.79 | 3.38 | 3.33 | 97 | 991.5 |
| 20260506185555 | 7 | 79 | 0.0 | 0.0 | 0.86 | 3.30 | 3.25 | 97 | 991.6 |
| 20260506185043 | 7 | 195 | 0.0 | 0.0 | 0.89 | 3.23 | 3.17 | 97 | 991.8 |
| 20260506184550 | 7 | 263 | 0.0 | 0.0 | 0.94 | 3.20 | 3.15 | 97 | 991.7 |
| 20260506184048 | 8 | 122 | 0.0 | 0.0 | 0.91 | 3.12 | 3.07 | 97 | 991.7 |
| 20260506183522 | 8 | 35 | 0.0 | 0.0 | 0.89 | 3.07 | 3.02 | 97 | 991.7 |
| 20260506183030 | 8 | 59 | 0.0 | 0.0 | 0.81 | 3.00 | 2.95 | 97 | 991.8 |
| 20260506182520 | 8 | 83 | 0.0 | 0.0 | 0.79 | 2.92 | 2.87 | 98 | 991.9 |
| 20260506182021 | 8 | 58 | 0.0 | 0.0 | 0.79 | 2.84 | 2.79 | 98 | 991.7 |
| 20260506181531 | 8 | 102 | 0.0 | 0.0 | 0.84 | 2.82 | 2.77 | 98 | 991.6 |
| 20260506181041 | 8 | 53 | 0.0 | 0.0 | 0.84 | 2.77 | 2.72 | 97 | 991.8 |
| 20260506180523 | 8 | 54 | 0.0 | 0.0 | 0.81 | 2.69 | 2.64 | 97 | 991.4 |
| 20260506180031 | 8 | 205 | 0.0 | 0.0 | 0.71 | 2.57 | 2.51 | 98 | 991.5 |
| 20260506175541 | 8 | 70 | 0.0 | 0.0 | 0.64 | 2.44 | 2.39 | 98 | 991.8 |
| 20260506175022 | 8 | 70 | 0.0 | 0.0 | 0.56 | 2.34 | 2.29 | 98 | 991.5 |
| 20260506174531 | 8 | 70 | 0.0 | 0.0 | 0.48 | 2.26 | 2.21 | 98 | 991.5 |
| 20260506174043 | 8 | 274 | 0.0 | 0.0 | 0.46 | 2.21 | 2.16 | 98 | 991.6 |
| 20260506173525 | 8 | 262 | 0.0 | 0.0 | 0.46 | 2.18 | 2.13 | 98 | 991.6 |
| 20260506173034 | 8 | 105 | 0.0 | 0.0 | 0.48 | 2.18 | 2.13 | 98 | 991.5 |
| 20260506172543 | 8 | 203 | 0.0 | 0.0 | 0.46 | 2.13 | 2.08 | 97 | 991.7 |
| 20260506172023 | 8 | 203 | 0.0 | 0.0 | 0.41 | 2.06 | 2.01 | 97 | 991.9 |
| 20260506171533 | 8 | 238 | 0.0 | 0.0 | 0.38 | 1.98 | 1.93 | 97 | 991.7 |
| 20260506171035 | 8 | 240 | 0.0 | 0.0 | 0.33 | 1.93 | 1.88 | 97 | 991.6 |
| 20260506170523 | 8 | 216 | 0.0 | 0.0 | 0.28 | 1.88 | 1.83 | 97 | 991.6 |
| 20260506170026 | 8 | 91 | 0.0 | 0.0 | 0.30 | 1.85 | 1.80 | 97 | 991.9 |
| 20260506165527 | 8 | 259 | 0.0 | 0.0 | 0.28 | 1.80 | 1.75 | 97 | 992.0 |
| 20260506165038 | 8 | 248 | 0.0 | 0.0 | 0.28 | 1.78 | 1.73 | 97 | 991.9 |
| 20260506164547 | 8 | 92 | 0.0 | 0.0 | 0.36 | 1.78 | 1.73 | 97 | 991.8 |
| 20260506164028 | 8 | 281 | 0.0 | 0.0 | 0.38 | 1.75 | 1.70 | 97 | 991.9 |
| 20260506163539 | 8 | 281 | 0.0 | 0.0 | 0.38 | 1.73 | 1.68 | 97 | 991.8 |
| 20260506163047 | 8 | 281 | 0.0 | 0.0 | 0.41 | 1.70 | 1.65 | 97 | 992.0 |
| 20260506162547 | 8 | 133 | 0.0 | 0.0 | 0.41 | 1.65 | 1.60 | 97 | 991.8 |
| 20260506162105 | 8 | 111 | 0.0 | 0.0 | 0.43 | 1.65 | 1.60 | 97 | 992.0 |
| 20260506161546 | 8 | 226 | 0.0 | 0.0 | 0.43 | 1.60 | 1.55 | 97 | 992.1 |
| 20260506161054 | 8 | 91 | 0.0 | 0.0 | 0.46 | 1.60 | 1.55 | 97 | 992.1 |
| 20260506160543 | 9 | 238 | 0.0 | 0.0 | 0.48 | 1.57 | 1.52 | 97 | 992.2 |
| 20260506160046 | 9 | 272 | 0.0 | 0.0 | 0.48 | 1.55 | 1.50 | 97 | 992.1 |
| 20260506155555 | 9 | 31 | 0.0 | 0.0 | 0.48 | 1.52 | 1.47 | 97 | 992.2 |
| 20260506155042 | 9 | 126 | 0.0 | 0.0 | 0.51 | 1.50 | 1.45 | 97 | 992.5 |
| 20260506154550 | 8 | 271 | 0.0 | 0.0 | 0.46 | 1.42 | 1.37 | 97 | 992.4 |
| 20260506154100 | 8 | 280 | 0.0 | 0.0 | 0.43 | 1.37 | 1.32 | 97 | 992.4 |
| 20260506153551 | 8 | 191 | 0.0 | 0.0 | 0.41 | 1.32 | 1.30 | 97 | 992.5 |
| 20260506153058 | 8 | 134 | 0.0 | 0.0 | 0.41 | 1.30 | 1.24 | 97 | 992.5 |
| 20260506152545 | 8 | 134 | 0.0 | 0.0 | 0.38 | 1.24 | 1.19 | 97 | 992.6 |
| 20260506152049 | 9 | 103 | 0.0 | 0.0 | 0.38 | 1.22 | 1.17 | 97 | 992.7 |
| 20260506151554 | 9 | 235 | 0.0 | 0.0 | 0.38 | 1.17 | 1.12 | 97 | 992.7 |
| 20260506151042 | 9 | 234 | 0.0 | 0.0 | 0.38 | 1.14 | 1.09 | 97 | 992.8 |
| 20260506150551 | 9 | 234 | 0.0 | 0.0 | 0.38 | 1.09 | 1.04 | 97 | 992.8 |
| 20260506150101 | 9 | 308 | 0.0 | 0.0 | 0.38 | 1.07 | 1.02 | 97 | 992.9 |
| 20260506145548 | 9 | 308 | 0.0 | 0.0 | 0.38 | 1.04 | 0.99 | 96 | 992.9 |
| 20260506145056 | 9 | 352 | 0.0 | 0.0 | 0.36 | 0.99 | 0.94 | 97 | 993.0 |
| 20260506144545 | 9 | 360 | 0.0 | 0.0 | 0.36 | 0.97 | 0.91 | 97 | 993.1 |
| 20260506144048 | 9 | 91 | 0.0 | 0.0 | 0.36 | 0.94 | 0.89 | 96 | 993.2 |
| 20260506143559 | 10 | 91 | 0.0 | 0.0 | 0.33 | 0.91 | 0.86 | 96 | 993.2 |
| 20260506143045 | 10 | 139 | 0.0 | 0.0 | 0.33 | 0.89 | 0.84 | 96 | 993.5 |
| 20260506142530 | 10 | 139 | 0.0 | 0.0 | 0.33 | 0.86 | 0.81 | 97 | 993.4 |
| 20260506142032 | 10 | 139 | 0.0 | 0.0 | 0.33 | 0.84 | 0.79 | 97 | 993.5 |
| 20260506141522 | 10 | 173 | 0.0 | 0.0 | 0.28 | 0.79 | 0.74 | 97 | 993.4 |
| 20260506141021 | 10 | 173 | 0.0 | 0.0 | 0.25 | 0.74 | 0.69 | 97 | 993.3 |
| 20260506140533 | 10 | 173 | 0.0 | 0.0 | 0.23 | 0.71 | 0.66 | 97 | 993.1 |
| 20260506140021 | 10 | 173 | 0.0 | 0.0 | 0.23 | 0.69 | 0.64 | 97 | 993.2 |
| 20260506135522 | 10 | 294 | 0.0 | 0.0 | 0.20 | 0.66 | 0.61 | 97 | 993.0 |
| 20260506135033 | 10 | 275 | 0.0 | 0.0 | 0.20 | 0.64 | 0.58 | 97 | 993.0 |
| 20260506134522 | 10 | 275 | 0.0 | 0.0 | 0.20 | 0.61 | 0.56 | 97 | 992.9 |
| 20260506134024 | 11 | 108 | 0.0 | 0.0 | 0.20 | 0.58 | 0.53 | 97 | 993.1 |
| 20260506133536 | 11 | 108 | 0.0 | 0.0 | 0.18 | 0.56 | 0.51 | 97 | 993.1 |
| 20260506133024 | 11 | 108 | 0.0 | 0.0 | 0.20 | 0.56 | 0.51 | 97 | 992.8 |
| 20260506132548 | 11 | 108 | 0.0 | 0.0 | 0.20 | 0.53 | 0.48 | 97 | 992.9 |
| 20260506132030 | 11 | 247 | 0.0 | 0.0 | 0.23 | 0.51 | 0.46 | 97 | 993.0 |
| 20260506131540 | 11 | 249 | 0.0 | 0.0 | 0.23 | 0.51 | 0.46 | 97 | 993.0 |
| 20260506131020 | 11 | 262 | 0.0 | 0.0 | 0.23 | 0.48 | 0.43 | 97 | 993.1 |
| 20260506130532 | 11 | 217 | 0.0 | 0.0 | 0.25 | 0.48 | 0.43 | 97 | 993.1 |
| 20260506130039 | 11 | 333 | 0.0 | 0.0 | 0.23 | 0.46 | 0.41 | 97 | 993.2 |
| 20260506125519 | 11 | 269 | 0.0 | 0.0 | 0.25 | 0.46 | 0.41 | 97 | 993.1 |
| 20260506125029 | 11 | 265 | 0.0 | 0.0 | 0.23 | 0.43 | 0.38 | 97 | 992.8 |
| 20260506124540 | 11 | 124 | 0.0 | 0.0 | 0.23 | 0.41 | 0.36 | 97 | 993.0 |
| 20260506124039 | 11 | 84 | 0.0 | 0.0 | 0.20 | 0.38 | 0.33 | 97 | 993.1 |
| 20260506123528 | 11 | 147 | 0.0 | 0.0 | 0.23 | 0.38 | 0.33 | 97 | 993.5 |
| 20260506123027 | 11 | 56 | 0.0 | 0.0 | 0.20 | 0.36 | 0.30 | 97 | 993.3 |
| 20260506122537 | 11 | 56 | 0.0 | 0.0 | 0.15 | 0.30 | 0.25 | 97 | 993.6 |
| 20260506122026 | 11 | 56 | 0.0 | 0.0 | 0.13 | 0.28 | 0.23 | 97 | 993.5 |
| 20260506121527 | 11 | 32 | 0.0 | 0.0 | 0.10 | 0.25 | 0.20 | 97 | 993.6 |
| 20260506121038 | 11 | 72 | 0.0 | 0.0 | 0.10 | 0.25 | 0.20 | 97 | 993.4 |
| 20260506120531 | 12 | 71 | 0.0 | 0.0 | 0.08 | 0.23 | 0.18 | 97 | 993.3 |
| 20260506120029 | 12 | 73 | 0.0 | 0.0 | 0.08 | 0.23 | 0.18 | 97 | 993.1 |
| 20260506115535 | 12 | 145 | 0.0 | 0.0 | 0.05 | 0.20 | 0.15 | 97 | 993.1 |
| 20260506115042 | 12 | 82 | 0.0 | 0.0 | 0.05 | 0.20 | 0.15 | 97 | 993.0 |
| 20260506114523 | 12 | 79 | 0.0 | 0.0 | 0.03 | 0.18 | 0.13 | 98 | 993.0 |
| 20260506114032 | 12 | 80 | 0.0 | 0.0 | 0.03 | 0.18 | 0.13 | 98 | 993.2 |
| 20260506113544 | 12 | 81 | 0.0 | 0.0 | 0.00 | 0.15 | 0.10 | 98 | 993.1 |
| 20260506113024 | 12 | 295 | 0.0 | 0.0 | 0.03 | 0.15 | 0.10 | 98 | 993.1 |
| 20260506112534 | 12 | 295 | 0.0 | 0.0 | 0.03 | 0.15 | 0.10 | 98 | 993.0 |
| 20260506112045 | 12 | 294 | 0.0 | 0.0 | 0.03 | 0.15 | 0.10 | 98 | 993.0 |
| 20260506111551 | 12 | 294 | 0.0 | 0.0 | 0.03 | 0.15 | 0.10 | 98 | 993.0 |
| 20260506111103 | 12 | 293 | 0.0 | 0.0 | 0.03 | 0.15 | 0.10 | 98 | 992.9 |
| 20260506110553 | 12 | 292 | 0.0 | 0.0 | 0.03 | 0.15 | 0.10 | 98 | 993.0 |
| 20260506105608 | 12 | 293 | 0.0 | 0.0 | 0.03 | 0.15 | 0.10 | 98 | 992.8 |
| 20260506105047 | 12 | 293 | 0.0 | 0.0 | 0.03 | 0.15 | 0.10 | 98 | 992.9 |
| 20260506104607 | 12 | 293 | 0.0 | 0.0 | 0.03 | 0.15 | 0.10 | 98 | 993.0 |
| 20260506104046 | 12 | 259 | 0.0 | 0.0 | 0.03 | 0.15 | 0.10 | 98 | 993.0 |
| 20260506103557 | 12 | 268 | 0.0 | 0.0 | 0.03 | 0.15 | 0.10 | 98 | 992.8 |
| 20260506103043 | 12 | 76 | 0.0 | 0.0 | 0.00 | 0.13 | 0.08 | 98 | 992.5 |
| 20260506102532 | 12 | 283 | 0.0 | 0.0 | 0.00 | 0.13 | 0.08 | 98 | 992.9 |
| 20260506102043 | 12 | 278 | 0.0 | 0.0 | 0.00 | 0.13 | 0.08 | 98 | 993.0 |
| 20260506101524 | 12 | 84 | 0.0 | 0.0 | 0.00 | 0.13 | 0.08 | 98 | 992.8 |
| 20260506101033 | 12 | 280 | 0.0 | 0.0 | 0.00 | 0.13 | 0.08 | 98 | 992.7 |
| 20260506100546 | 12 | 56 | 0.0 | 0.0 | 0.00 | 0.13 | 0.08 | 98 | 992.6 |
| 20260506100025 | 12 | 56 | 0.0 | 0.0 | 0.00 | 0.13 | 0.08 | 97 | 992.6 |
| 20260506095531 | 12 | 56 | 0.0 | 0.0 | 0.00 | 0.13 | 0.08 | 97 | 992.4 |
| 20260506095033 | 12 | 56 | 0.0 | 0.0 | 0.00 | 0.13 | 0.08 | 97 | 992.4 |
| 20260506094523 | 12 | 56 | 0.0 | 0.0 | 0.00 | 0.13 | 0.08 | 98 | 992.4 |
| 20260506094035 | 12 | 70 | 0.0 | 0.0 | 0.00 | 0.13 | 0.08 | 98 | 992.5 |
| 20260506093534 | 12 | 74 | 0.0 | 0.0 | 0.00 | 0.13 | 0.08 | 98 | 992.5 |
| 20260506093022 | 12 | 75 | 0.0 | 0.0 | 0.00 | 0.13 | 0.08 | 98 | 992.6 |
| 20260506092533 | 12 | 75 | 0.0 | 0.0 | 0.00 | 0.13 | 0.08 | 98 | 992.6 |
| 20260506092032 | 12 | 75 | 0.0 | 0.0 | 0.00 | 0.13 | 0.08 | 98 | 992.5 |
| 20260506091521 | 12 | 74 | 0.0 | 0.0 | 0.00 | 0.13 | 0.08 | 98 | 992.6 |
| 20260506091022 | 12 | 75 | 0.0 | 0.0 | 0.00 | 0.13 | 0.08 | 97 | 992.7 |
| 20260506090534 | 12 | 75 | 0.0 | 1.6 | 0.00 | 0.13 | 0.08 | 97 | 992.8 |
| 20260506090022 | 12 | 74 | 0.0 | 0.0 | 0.00 | 0.13 | 0.08 | 97 | 992.8 |
| 20260506085524 | 12 | 75 | 0.0 | 0.0 | 0.00 | 0.13 | 0.08 | 97 | 992.7 |
| 20260506085033 | 11 | 75 | 0.0 | 0.0 | 0.00 | 0.13 | 0.08 | 97 | 992.7 |
| 20260506084524 | 11 | 75 | 0.0 | 0.0 | 0.00 | 0.13 | 0.08 | 97 | 992.9 |
| 20260506084023 | 11 | 75 | 0.0 | 0.0 | 0.00 | 0.13 | 0.08 | 97 | 992.9 |
| 20260506083533 | 12 | 75 | 0.0 | 0.0 | 0.00 | 0.13 | 0.08 | 97 | 992.9 |
| 20260506083041 | 12 | 75 | 0.0 | 0.0 | 0.00 | 0.13 | 0.08 | 97 | 993.0 |
| 20260506082522 | 12 | 75 | 0.0 | 1.6 | 0.00 | 0.13 | 0.08 | 97 | 993.0 |
| 20260506082046 | 12 | 75 | 0.0 | 1.6 | 0.00 | 0.13 | 0.08 | 97 | 993.1 |
| 20260506081556 | 12 | 75 | 0.0 | 0.0 | 0.00 | 0.13 | 0.08 | 97 | 993.2 |
| 20260506081043 | 12 | 75 | 0.0 | 0.0 | 0.00 | 0.13 | 0.08 | 97 | 993.2 |
| 20260506080553 | 12 | 75 | 0.0 | 0.0 | 0.00 | 0.13 | 0.08 | 97 | 993.0 |
| 20260506073041 | 12 | 75 | 0.0 | 0.0 | 0.00 | 0.13 | 0.08 | 96 | 993.5 |
| 20260506072551 | 12 | 75 | 0.0 | 0.0 | 0.00 | 0.13 | 0.08 | 96 | 993.5 |
| 20260506072100 | 12 | 75 | 0.0 | 0.0 | 0.00 | 0.13 | 0.08 | 96 | 993.5 |
| 20260506071529 | 12 | 74 | 0.0 | 0.0 | 0.00 | 0.13 | 0.08 | 96 | 993.2 |
| 20260506071028 | 12 | 75 | 0.0 | 0.0 | 0.00 | 0.13 | 0.08 | 96 | 993.2 |
| 20260506070540 | 12 | 75 | 0.0 | 0.0 | 0.00 | 0.13 | 0.08 | 96 | 993.1 |
| 20260506062036 | 13 | 74 | 0.0 | 0.0 | 0.05 | 0.13 | 0.08 | 95 | 993.6 |
| 20260506061539 | 13 | 75 | 0.0 | 0.0 | 0.05 | 0.13 | 0.08 | 95 | 993.5 |
| 20260506061025 | 13 | 75 | 0.0 | 0.0 | 0.05 | 0.13 | 0.08 | 95 | 993.6 |
| 20260506060537 | 13 | 75 | 0.0 | 0.0 | 0.05 | 0.13 | 0.08 | 94 | 993.6 |
| 20260506051039 | 15 | 1 | 0.0 | 1.6 | 0.03 | 0.08 | 0.03 | 89 | 993.4 |
| 20260506050522 | 15 | 46 | 0.0 | 1.6 | 0.03 | 0.08 | 0.03 | 87 | 993.4 |
| 20260506045047 | 16 | 46 | 0.0 | 0.0 | 0.03 | 0.08 | 0.03 | 83 | 993.7 |
| 20260506044525 | 16 | 307 | 0.0 | 0.0 | 0.03 | 0.08 | 0.03 | 80 | 993.9 |
| 20260506044037 | 16 | 301 | 0.0 | 0.0 | 0.00 | 0.05 | 0.00 | 78 | 994.0 |
| 20260506043528 | 16 | 76 | 0.0 | 0.0 | 0.00 | 0.05 | 0.00 | 79 | 993.9 |
| 20260506043027 | 16 | 278 | 0.0 | 0.0 | 0.00 | 0.05 | 0.00 | 80 | 993.9 |
| 20260506042537 | 16 | 276 | 0.0 | 1.6 | 0.00 | 0.05 | 0.00 | 81 | 993.7 |
| 20260506042026 | 16 | 127 | 0.0 | 0.0 | 0.00 | 0.05 | 0.00 | 84 | 993.7 |
| 20260506041527 | 16 | 74 | 0.0 | 0.0 | 0.00 | 0.05 | 0.00 | 85 | 993.7 |
| 20260506041038 | 16 | 311 | 0.0 | 0.0 | 0.00 | 0.05 | 0.00 | 84 | 993.5 |
| 20260506040549 | 16 | 306 | 0.0 | 0.0 | 0.00 | 0.05 | 0.00 | 84 | 993.4 |
| 20260506040051 | 16 | 306 | 0.0 | 0.0 | 0.00 | 0.05 | 0.05 | 85 | 993.5 |
| 20260506035559 | 16 | 306 | 0.0 | 1.6 | 0.00 | 0.05 | 0.05 | 85 | 993.5 |
| 20260506035043 | 16 | 306 | 0.0 | 1.6 | 0.00 | 0.05 | 0.05 | 86 | 993.6 |
| 20260506034551 | 16 | 99 | 0.0 | 1.6 | 0.00 | 0.05 | 0.05 | 86 | 993.5 |
| 20260506034059 | 16 | 98 | 0.0 | 1.6 | 0.00 | 0.05 | 0.05 | 87 | 993.4 |
| 20260506033548 | 16 | 99 | 0.0 | 1.6 | 0.00 | 0.05 | 0.05 | 88 | 993.4 |
| 20260506033055 | 15 | 75 | 0.0 | 0.0 | 0.00 | 0.05 | 0.05 | 89 | 993.4 |
| 20260506032543 | 15 | 75 | 0.0 | 0.0 | 0.00 | 0.05 | 0.05 | 89 | 993.4 |
| 20260506032047 | 15 | 75 | 0.0 | 1.6 | 0.00 | 0.05 | 0.05 | 89 | 993.4 |
| 20260506031556 | 15 | 74 | 0.0 | 1.6 | 0.00 | 0.05 | 0.05 | 89 | 993.4 |
| 20260506031043 | 15 | 74 | 0.0 | 0.0 | 0.00 | 0.05 | 0.05 | 89 | 993.3 |
| 20260506030521 | 15 | 74 | 0.0 | 0.0 | 0.00 | 0.05 | 0.05 | 89 | 993.2 |
| 20260506030029 | 15 | 74 | 0.0 | 0.0 | 0.00 | 0.05 | 0.05 | 89 | 993.1 |
| 20260506025539 | 15 | 74 | 0.0 | 0.0 | 0.00 | 0.05 | 0.05 | 89 | 993.1 |
| 20260506025020 | 15 | 74 | 0.0 | 0.0 | 0.00 | 0.05 | 0.05 | 89 | 993.1 |
| 20260506024530 | 15 | 108 | 0.0 | 1.6 | 0.00 | 0.05 | 0.05 | 89 | 993.1 |
| 20260506024040 | 15 | 108 | 0.0 | 1.6 | 0.00 | 0.05 | 0.05 | 89 | 993.0 |
| 20260506023522 | 15 | 108 | 0.0 | 1.6 | 0.00 | 0.05 | 0.05 | 89 | 992.9 |
| 20260506023029 | 15 | 50 | 0.0 | 1.6 | 0.00 | 0.05 | 0.05 | 89 | 992.9 |
| 20260506022538 | 15 | 50 | 0.0 | 0.0 | 0.00 | 0.05 | 0.05 | 88 | 992.9 |
| 20260506022038 | 15 | 50 | 0.0 | 0.0 | 0.00 | 0.05 | 0.05 | 88 | 992.9 |
| 20260506021528 | 15 | 50 | 0.0 | 1.6 | 0.00 | 0.05 | 0.05 | 88 | 993.0 |
| 20260506021038 | 16 | 49 | 0.0 | 1.6 | 0.00 | 0.05 | 0.05 | 88 | 992.8 |
| 20260506020537 | 16 | 48 | 0.0 | 1.6 | 0.00 | 0.05 | 0.05 | 88 | 992.7 |
| 20260506020044 | 16 | 48 | 0.0 | 0.0 | 0.00 | 0.05 | 0.05 | 86 | 992.5 |
| 20260506015548 | 16 | 48 | 0.0 | 0.0 | 0.00 | 0.05 | 0.05 | 86 | 992.5 |
| 20260506015057 | 16 | 49 | 0.0 | 0.0 | 0.00 | 0.05 | 0.05 | 86 | 992.6 |
| 20260506014545 | 16 | 49 | 0.0 | 1.6 | 0.00 | 0.05 | 0.05 | 85 | 992.5 |
| 20260506014053 | 16 | 49 | 0.0 | 1.6 | 0.00 | 0.05 | 0.05 | 84 | 992.4 |
| 20260506013602 | 16 | 49 | 0.0 | 1.6 | 0.00 | 0.05 | 0.05 | 83 | 992.3 |
| 20260506013048 | 17 | 49 | 0.0 | 1.6 | 0.00 | 0.05 | 0.05 | 83 | 992.2 |
| 20260506012552 | 17 | 55 | 0.0 | 1.6 | 0.00 | 0.05 | 0.05 | 81 | 992.2 |
| 20260506012100 | 17 | 54 | 0.0 | 0.0 | 0.00 | 0.05 | 0.05 | 80 | 992.3 |
| 20260506011548 | 17 | 55 | 0.0 | 1.6 | 0.00 | 0.05 | 0.05 | 77 | 992.3 |
| 20260506011020 | 17 | 55 | 0.0 | 3.2 | 0.00 | 0.05 | 0.05 | 76 | 992.3 |
| 20260506010523 | 17 | 129 | 0.0 | 3.2 | 0.00 | 0.05 | 0.05 | 76 | 992.3 |
| 20260506010032 | 17 | 131 | 0.0 | 3.2 | 0.00 | 0.05 | 0.05 | 76 | 992.1 |
| 20260506005521 | 17 | 218 | 0.0 | 3.2 | 0.00 | 0.05 | 0.05 | 76 | 991.8 |
| 20260506005022 | 17 | 249 | 0.0 | 3.2 | 0.00 | 0.05 | 0.05 | 76 | 991.6 |
| 20260506004532 | 17 | 233 | 0.0 | 3.2 | 0.00 | 0.05 | 0.05 | 75 | 991.8 |
| 20260506004043 | 17 | 233 | 0.0 | 3.2 | 0.00 | 0.05 | 0.05 | 76 | 991.7 |
| 20260506003526 | 17 | 98 | 0.0 | 1.6 | 0.00 | 0.05 | 0.05 | 76 | 991.5 |
| 20260506003036 | 17 | 121 | 0.0 | 4.8 | 0.00 | 0.05 | 0.05 | 75 | 991.4 |
| 20260506002545 | 17 | 237 | 3.2 | 4.8 | 0.00 | 0.05 | 0.05 | 75 | 991.4 |
| 20260506002026 | 17 | 217 | 0.0 | 1.6 | 0.00 | 0.05 | 0.05 | 74 | 991.4 |
| 20260506001537 | 17 | 214 | 0.0 | 1.6 | 0.00 | 0.05 | 0.05 | 72 | 991.4 |
| 20260506001043 | 18 | 214 | 0.0 | 1.6 | 0.00 | 0.05 | 0.05 | 71 | 991.4 |
| 20260506000525 | 18 | 214 | 0.0 | 1.6 | 0.00 | 0.05 | 0.05 | 70 | 991.4 |
| 20260506000031 | 19 | 214 | 0.0 | 1.6 | 0.00 | 0.05 | 0.05 | 68 | 991.3 |
| 20260505235532 | 19 | 225 | 0.0 | 4.8 | 0.00 | 0.05 | 0.05 | 66 | 991.3 |
| 20260505235022 | 19 | 243 | 0.0 | 11.3 | 0.00 | 0.05 | 0.05 | 65 | 991.2 |
| 20260505234532 | 19 | 207 | 3.2 | 11.3 | 0.00 | 0.05 | 0.05 | 65 | 991.1 |
| 20260505234031 | 19 | 191 | 1.6 | 3.2 | 0.00 | 0.05 | 0.05 | 65 | 991.0 |
| 20260505233522 | 20 | 210 | 0.0 | 3.2 | 0.00 | 0.05 | 0.05 | 64 | 990.9 |
| 20260505233030 | 20 | 252 | 0.0 | 1.6 | 0.00 | 0.05 | 0.05 | 64 | 990.8 |
| 20260505232531 | 20 | 131 | 0.0 | 1.6 | 0.00 | 0.05 | 0.05 | 64 | 990.8 |
| 20260505232020 | 20 | 131 | 0.0 | 6.4 | 0.00 | 0.05 | 0.05 | 64 | 990.7 |
| 20260505231521 | 20 | 285 | 1.6 | 8.0 | 0.00 | 0.05 | 0.05 | 63 | 990.6 |
| 20260505231031 | 20 | 255 | 0.0 | 6.4 | 0.00 | 0.05 | 0.05 | 63 | 990.6 |
| 20260505230522 | 20 | 241 | 1.6 | 12.9 | 0.00 | 0.05 | 0.05 | 63 | 990.6 |
| 20260505230022 | 20 | 281 | 3.2 | 12.9 | 0.00 | 0.05 | 0.05 | 63 | 990.7 |
| 20260505225533 | 20 | 144 | 1.6 | 6.4 | 0.00 | 0.05 | 0.05 | 63 | 990.7 |
| 20260505225042 | 20 | 37 | 3.2 | 11.3 | 0.00 | 0.05 | 0.05 | 64 | 990.8 |
| 20260505224522 | 20 | 231 | 3.2 | 16.1 | 0.00 | 0.05 | 0.05 | 64 | 990.7 |
| 20260505224032 | 20 | 244 | 4.8 | 22.5 | 0.00 | 0.05 | 0.05 | 63 | 990.6 |
| 20260505223539 | 20 | 181 | 4.8 | 27.4 | 0.00 | 0.05 | 0.05 | 64 | 990.7 |
| 20260505223039 | 20 | 311 | 6.4 | 27.4 | 0.00 | 0.05 | 0.05 | 64 | 990.6 |
| 20260505222528 | 20 | 200 | 4.8 | 22.5 | 0.00 | 0.05 | 0.05 | 63 | 990.6 |
| 20260505222038 | 20 | 310 | 6.4 | 22.5 | 0.00 | 0.05 | 0.05 | 61 | 990.6 |
| 20260505221538 | 20 | 107 | 4.8 | 14.5 | 0.00 | 0.05 | 0.05 | 60 | 990.1 |
| 20260505221028 | 20 | 237 | 3.2 | 16.1 | 0.00 | 0.05 | 0.05 | 61 | 990.0 |
| 20260505220540 | 20 | 122 | 4.8 | 16.1 | 0.00 | 0.05 | 0.05 | 62 | 989.9 |
| 20260505220038 | 20 | 202 | 6.4 | 19.3 | 0.00 | 0.05 | 0.05 | 62 | 989.8 |
| 20260505215529 | 20 | 248 | 4.8 | 19.3 | 0.00 | 0.05 | 0.05 | 62 | 989.9 |
| 20260505215030 | 20 | 69 | 4.8 | 16.1 | 0.00 | 0.05 | 0.05 | 64 | 989.9 |
| 20260505214520 | 19 | 228 | 3.2 | 20.9 | 0.00 | 0.05 | 0.05 | 65 | 989.7 |
| 20260505214031 | 19 | 254 | 8.0 | 22.5 | 0.00 | 0.05 | 0.05 | 66 | 989.8 |
| 20260505213533 | 19 | 222 | 4.8 | 22.5 | 0.00 | 0.05 | 0.05 | 67 | 989.6 |
| 20260505213021 | 20 | 94 | 1.6 | 17.7 | 0.00 | 0.05 | 0.05 | 67 | 989.6 |
| 20260505212522 | 20 | 328 | 3.2 | 16.1 | 0.00 | 0.05 | 0.05 | 67 | 990.1 |
| 20260505212033 | 20 | 255 | 4.8 | 20.9 | 0.00 | 0.05 | 0.05 | 66 | 990.1 |
| 20260505211522 | 20 | 250 | 4.8 | 20.9 | 0.00 | 0.05 | 0.05 | 66 | 990.7 |
| 20260505211023 | 20 | 131 | 3.2 | 20.9 | 0.00 | 0.05 | 0.05 | 65 | 990.6 |
| 20260505210534 | 21 | 39 | 6.4 | 17.7 | 0.00 | 0.05 | 0.05 | 64 | 990.4 |
| 20260505210021 | 21 | 304 | 3.2 | 19.3 | 0.00 | 0.05 | 0.05 | 62 | 990.2 |
| 20260505205547 | 22 | 229 | 6.4 | 19.3 | 0.00 | 0.05 | 0.05 | 60 | 990.1 |
| 20260505205029 | 22 | 250 | 6.4 | 11.3 | 0.00 | 0.05 | 0.05 | 58 | 990.0 |
| 20260505204558 | 22 | 136 | 3.2 | 8.0 | 0.00 | 0.05 | 0.05 | 60 | 989.7 |
| 20260505204046 | 22 | 274 | 1.6 | 8.0 | 0.03 | 0.05 | 0.05 | 61 | 989.2 |
| 20260505203555 | 22 | 278 | 1.6 | 6.4 | 0.03 | 0.05 | 0.05 | 64 | 989.0 |
| 20260505203041 | 22 | 191 | 3.2 | 6.4 | 0.05 | 0.05 | 0.05 | 66 | 989.0 |